EW0693 Weather Reports


Display with metric or nautical units.
time (UTC)temp
F
wind
direction
speed
MPH
gust
MPH
rain 1hr
in
rain 24hr
in
rain mn
in
humidity
%
barometer
mb
20180625095502 48 320 0.0 2.0 0.00 0.00 0.00 85 1020.3
20180625095002 48 327 0.0 1.0 0.00 0.00 0.00 85 1020.3
20180625094502 48 340 0.0 1.0 0.00 0.00 0.00 85 1020.2
20180625094003 48 1 0.0 1.0 0.00 0.00 0.00 84 1020.0
20180625093503 48 28 0.0 2.0 0.00 0.00 0.00 84 1019.8
20180625093002 48 24 0.0 2.0 0.00 0.00 0.00 85 1019.8
20180625092502 47 317 0.0 2.0 0.00 0.00 0.00 84 1019.8
20180625092003 47 330 0.0 2.0 0.00 0.00 0.00 84 1019.7
20180625091503 47 348 0.0 2.0 0.00 0.00 0.00 84 1019.6
20180625091003 47 3 0.0 1.0 0.00 0.00 0.00 83 1019.5
20180625090502 47 3 0.0 1.0 0.00 0.00 0.00 82 1019.6
20180625090002 47 0 0.0 0.0 0.00 0.00 0.00 82 1019.5
20180625085503 47 339 0.0 1.0 0.00 0.00 0.00 81 1019.5
20180625085003 48 335 0.0 1.0 0.00 0.00 0.00 81 1019.5
20180625084502 48 324 0.0 2.0 0.00 0.00 0.00 80 1019.6
20180625084002 48 332 0.0 2.0 0.00 0.00 0.00 80 1019.5
20180625083503 48 327 0.0 1.0 0.00 0.00 0.00 80 1019.4
20180625083003 48 317 0.0 1.0 0.00 0.00 0.00 79 1019.3
20180625082502 48 322 0.0 1.0 0.00 0.00 0.00 79 1019.3
20180625082002 48 317 0.0 2.0 0.00 0.00 0.00 78 1019.2
20180625081502 48 313 0.0 2.0 0.00 0.00 0.00 78 1019.2
20180625081003 48 317 0.0 2.0 0.00 0.00 0.00 78 1019.2
20180625080503 48 337 0.0 2.0 0.00 0.00 0.00 78 1019.2
20180625080003 48 331 0.0 3.0 0.00 0.00 0.00 78 1019.2
20180625075502 48 325 0.0 3.0 0.00 0.00 0.00 77 1019.3
20180625075002 48 327 0.0 2.0 0.00 0.00 0.00 77 1019.3
20180625074503 48 326 0.0 3.0 0.00 0.00 0.00 77 1019.3
20180625074003 48 330 1.0 3.0 0.00 0.00 0.00 77 1019.3
20180625073503 48 333 1.0 3.0 0.00 0.00 0.00 77 1019.3
20180625073003 48 330 0.0 3.0 0.00 0.00 0.00 77 1019.1
20180625072502 48 326 0.0 3.0 0.00 0.00 0.00 77 1019.2
20180625072002 48 322 0.0 3.0 0.00 0.00 0.00 77 1019.2
20180625071503 48 305 0.0 3.0 0.00 0.00 0.00 77 1019.2
20180625071003 48 309 0.0 3.0 0.00 0.00 0.00 77 1019.2
20180625070502 48 313 0.0 2.0 0.00 0.00 0.00 77 1019.2
20180625070002 49 321 0.0 1.0 0.00 0.00 0.00 76 1019.2
20180625065502 49 333 0.0 1.0 0.00 0.00 0.00 76 1019.2
20180625065003 49 348 0.0 2.0 0.00 0.00 0.00 76 1019.3
20180625064502 49 336 0.0 2.0 0.00 0.00 0.00 76 1019.3
20180625064002 49 337 0.0 2.0 0.00 0.00 0.00 76 1019.2
20180625063502 49 350 0.0 2.0 0.00 0.00 0.00 76 1019.1
20180625063003 49 341 0.0 1.0 0.00 0.00 0.00 75 1019.1
20180625062503 49 314 0.0 3.0 0.00 0.00 0.00 75 1019.2
20180625062003 49 312 1.0 3.0 0.00 0.00 0.00 75 1019.1
20180625061503 49 312 0.0 3.0 0.00 0.00 0.00 75 1019.1
20180625061003 49 314 0.0 2.0 0.00 0.00 0.00 74 1019.2
20180625060502 50 314 0.0 2.0 0.00 0.00 0.00 74 1019.2
20180625060002 50 322 0.0 4.0 0.00 0.00 0.00 73 1019.3
20180625055502 50 324 0.0 4.0 0.00 0.00 0.00 73 1019.3
20180625055003 50 328 0.0 2.0 0.00 0.00 0.00 74 1019.2
20180625054503 50 329 0.0 2.0 0.00 0.00 0.00 73 1019.3
20180625054003 50 350 0.0 1.0 0.00 0.00 0.00 74 1019.4
20180625053502 50 339 0.0 1.0 0.00 0.00 0.00 73 1019.3
20180625053002 50 359 0.0 1.0 0.00 0.00 0.00 74 1019.2
20180625052503 50 345 0.0 2.0 0.00 0.00 0.00 73 1019.2
20180625052003 50 321 0.0 2.0 0.00 0.00 0.00 73 1019.2
20180625051503 50 318 0.0 1.0 0.00 0.00 0.00 72 1019.1
20180625051002 50 314 0.0 1.0 0.00 0.00 0.00 72 1019.1
20180625050502 50 312 0.0 2.0 0.00 0.00 0.00 72 1019.0
20180625050003 51 312 0.0 2.0 0.00 0.00 0.00 72 1019.1
20180625045503 51 312 0.0 4.0 0.00 0.00 0.00 71 1019.1
20180625045002 51 313 0.0 4.0 0.00 0.00 0.00 71 1019.0
20180625044502 51 324 0.0 2.0 0.00 0.00 0.00 71 1018.9
20180625044003 51 332 0.0 2.0 0.00 0.00 0.00 71 1018.9
20180625043503 51 341 0.0 2.0 0.00 0.00 0.00 70 1018.9
20180625043003 51 7 0.0 1.0 0.00 0.00 0.00 70 1018.9
20180625042502 51 34 0.0 1.0 0.00 0.00 0.00 70 1019.0
20180625042002 52 329 0.0 1.0 0.00 0.00 0.00 70 1019.0
20180625041503 52 319 0.0 1.0 0.00 0.00 0.00 69 1019.1
20180625041003 52 319 0.0 1.0 0.00 0.00 0.00 69 1019.1
20180625040503 52 317 0.0 3.0 0.00 0.00 0.00 68 1018.9
20180625040003 52 314 0.0 3.0 0.00 0.00 0.00 68 1018.8
20180625035503 52 322 0.0 3.0 0.00 0.00 0.00 67 1018.7
20180625035003 53 343 0.0 4.0 0.00 0.00 0.00 67 1018.6
20180625034502 53 324 0.0 4.0 0.00 0.00 0.00 67 1018.6
20180625034003 53 315 1.0 6.0 0.00 0.00 0.00 67 1018.5
20180625033503 53 313 1.0 6.0 0.00 0.00 0.00 67 1018.4
20180625033003 53 310 1.0 3.0 0.00 0.00 0.00 67 1018.4
20180625032502 54 324 0.0 3.0 0.00 0.00 0.00 67 1018.3
20180625032003 54 355 0.0 3.0 0.00 0.00 0.00 67 1018.4
20180625031503 54 348 0.0 3.0 0.00 0.00 0.00 66 1018.4
20180625031003 54 345 1.0 5.0 0.00 0.00 0.00 65 1018.4
20180625030503 55 335 1.0 6.0 0.00 0.00 0.00 64 1018.5
20180625030002 55 321 1.0 6.0 0.00 0.00 0.00 65 1018.5
20180625025502 55 328 1.0 6.0 0.00 0.00 0.00 65 1018.5
20180625025003 56 338 1.0 6.0 0.00 0.00 0.00 64 1018.4
20180625024503 56 319 0.0 3.0 0.00 0.00 0.00 63 1018.3
20180625024003 56 330 0.0 3.0 0.00 0.00 0.00 62 1018.2
20180625023503 56 332 1.0 4.0 0.00 0.00 0.00 61 1018.2
20180625023002 56 330 1.0 6.0 0.00 0.00 0.00 60 1018.1
20180625022503 57 347 1.0 6.0 0.00 0.00 0.00 59 1017.9
20180625022003 57 339 1.0 6.0 0.00 0.00 0.00 58 1017.7
20180625021503 57 328 1.0 5.0 0.00 0.00 0.00 58 1017.6
20180625021003 57 329 1.0 5.0 0.00 0.00 0.00 60 1017.6
20180625020503 57 321 1.0 4.0 0.00 0.00 0.00 60 1017.6
20180625020003 57 312 0.0 4.0 0.00 0.00 0.00 61 1017.5
20180625015503 58 319 0.0 3.0 0.00 0.00 0.00 62 1017.4
20180625015003 58 325 0.0 2.0 0.00 0.00 0.00 63 1017.4
20180625014503 58 341 0.0 2.0 0.00 0.00 0.00 63 1017.4
20180625014002 58 346 0.0 2.0 0.00 0.00 0.00 63 1017.3
20180625013503 59 334 0.0 2.0 0.00 0.00 0.00 63 1017.2
20180625013003 59 2 0.0 5.0 0.00 0.00 0.00 63 1017.0
20180625012503 60 335 0.0 5.0 0.00 0.00 0.00 62 1017.0
20180625012003 60 312 1.0 3.0 0.00 0.00 0.00 62 1017.0
20180625011502 60 320 1.0 7.0 0.00 0.00 0.00 62 1017.0
20180625011003 61 326 1.0 7.0 0.00 0.00 0.00 63 1016.8
20180625010503 61 321 1.0 5.0 0.00 0.00 0.00 64 1016.7
20180625010003 62 313 1.0 6.0 0.00 0.00 0.00 65 1016.7
20180625005503 62 328 1.0 6.0 0.00 0.00 0.00 66 1016.5
20180625005003 62 6 1.0 4.0 0.00 0.00 0.00 67 1016.6
20180625004502 63 14 1.0 4.0 0.00 0.00 0.00 68 1016.5
20180625004003 63 9 1.0 5.0 0.00 0.00 0.00 69 1016.4
20180625003503 64 14 2.0 5.0 0.00 0.00 0.00 68 1016.3
20180625003003 64 8 2.0 8.0 0.00 0.00 0.00 70 1016.2
20180625002502 64 350 1.0 8.0 0.00 0.00 0.00 70 1016.2
20180625002003 64 3 1.0 5.0 0.00 0.00 0.00 70 1016.1
20180625001503 64 13 1.0 5.0 0.00 0.00 0.00 69 1016.2
20180625001003 65 8 1.0 9.0 0.00 0.00 0.00 69 1016.1
20180625000503 65 355 1.0 9.0 0.00 0.00 0.00 69 1016.1
20180625000004 65 4 1.0 8.0 0.00 0.00 0.00 69 1016.0
20180624235503 65 23 1.0 5.0 0.00 0.00 0.00 70 1015.9
20180624235003 65 3 2.0 7.0 0.00 0.00 0.00 69 1015.8
20180624234503 65 355 2.0 7.0 0.00 0.00 0.00 69 1015.7
20180624234004 65 11 2.0 9.0 0.00 0.00 0.00 69 1015.6
20180624233504 65 28 2.0 9.0 0.00 0.00 0.00 68 1015.6
20180624233002 66 25 2.0 8.0 0.00 0.00 0.00 68 1015.6
20180624232503 66 3 2.0 7.0 0.00 0.00 0.00 69 1015.6
20180624232003 66 356 2.0 7.0 0.00 0.00 0.00 68 1015.5
20180624231503 66 357 2.0 7.0 0.00 0.00 0.00 69 1015.5
20180624231003 66 1 1.0 7.0 0.00 0.00 0.00 68 1015.6
20180624230503 66 20 1.0 4.0 0.00 0.00 0.00 69 1015.6
20180624230003 66 20 2.0 6.0 0.00 0.00 0.00 69 1015.6
20180624225503 66 20 2.0 7.0 0.00 0.00 0.00 68 1015.6
20180624225003 67 20 2.0 7.0 0.00 0.00 0.00 67 1015.6
20180624224503 67 16 2.0 10.0 0.00 0.00 0.00 67 1015.4
20180624224003 67 14 3.0 10.0 0.00 0.00 0.00 65 1015.4
20180624223503 68 10 2.0 9.0 0.00 0.00 0.00 65 1015.4
20180624223003 68 14 1.0 6.0 0.00 0.00 0.00 66 1015.4
20180624222503 68 34 1.0 5.0 0.00 0.00 0.00 66 1015.5
20180624222003 68 24 1.0 5.0 0.00 0.00 0.00 65 1015.5
20180624221503 68 20 2.0 5.0 0.00 0.00 0.00 64 1015.5
20180624221003 69 22 1.0 5.0 0.00 0.00 0.00 64 1015.5
20180624220503 69 27 1.0 5.0 0.00 0.00 0.00 65 1015.5
20180624220003 69 19 2.0 7.0 0.00 0.00 0.00 65 1015.5
20180624215503 69 11 1.0 7.0 0.00 0.00 0.00 65 1015.5
20180624215003 69 22 1.0 7.0 0.00 0.00 0.00 66 1015.5
20180624214503 69 25 1.0 7.0 0.00 0.00 0.00 65 1015.5
20180624214003 69 27 2.0 7.0 0.00 0.00 0.00 65 1015.5
20180624213504 69 30 2.0 7.0 0.00 0.00 0.00 66 1015.5
20180624213003 69 17 2.0 7.0 0.00 0.00 0.00 65 1015.5
20180624212503 69 356 2.0 8.0 0.00 0.00 0.00 64 1015.6
20180624212003 69 2 2.0 8.0 0.00 0.00 0.00 65 1015.7
20180624211503 68 1 2.0 7.0 0.00 0.00 0.00 65 1015.6
20180624211003 69 354 2.0 7.0 0.00 0.00 0.00 63 1015.6
20180624210503 69 21 2.0 7.0 0.00 0.00 0.00 66 1015.6
20180624210004 69 36 2.0 8.0 0.00 0.00 0.00 63 1015.6
20180624205503 70 34 1.0 8.0 0.00 0.00 0.00 63 1015.5
20180624205003 70 10 1.0 6.0 0.00 0.00 0.00 66 1015.6
20180624204503 70 15 1.0 6.0 0.00 0.00 0.00 62 1015.6
20180624204003 70 1 1.0 7.0 0.00 0.00 0.00 66 1015.5
20180624203503 70 349 2.0 7.0 0.00 0.00 0.00 65 1015.5
20180624203003 70 6 2.0 6.0 0.00 0.00 0.00 65 1015.4
20180624202503 70 2 2.0 6.0 0.00 0.00 0.00 65 1015.3
20180624202003 70 5 1.0 6.0 0.00 0.00 0.00 63 1015.2
20180624201503 70 23 2.0 6.0 0.00 0.00 0.00 64 1015.4
20180624201003 70 9 2.0 6.0 0.00 0.00 0.00 64 1015.4
20180624200503 70 6 2.0 7.0 0.00 0.00 0.00 65 1015.4
20180624200003 70 19 1.0 7.0 0.00 0.00 0.00 66 1015.4
20180624195503 70 21 2.0 6.0 0.00 0.00 0.00 64 1015.4
20180624195003 70 14 1.0 6.0 0.00 0.00 0.00 64 1015.4
20180624194503 69 16 1.0 7.0 0.00 0.00 0.00 68 1015.3
20180624194003 68 12 1.0 7.0 0.00 0.00 0.00 67 1015.2
20180624193504 68 359 1.0 5.0 0.00 0.00 0.00 68 1015.1
20180624193003 68 20 2.0 5.0 0.00 0.00 0.00 66 1015.0
20180624192503 68 25 2.0 5.0 0.00 0.00 0.00 66 1014.9
20180624192003 69 25 2.0 5.0 0.00 0.00 0.00 66 1014.8
20180624191503 69 11 2.0 8.0 0.00 0.00 0.00 66 1014.7
20180624191004 69 351 1.0 8.0 0.00 0.00 0.00 67 1014.7
20180624190503 69 345 1.0 7.0 0.00 0.00 0.00 66 1014.8
20180624190003 68 356 1.0 7.0 0.00 0.00 0.00 67 1014.8
20180624185503 69 358 2.0 9.0 0.00 0.00 0.00 65 1014.8
20180624185003 69 352 2.0 9.0 0.00 0.00 0.00 64 1014.7
20180624184503 68 341 2.0 6.0 0.00 0.00 0.00 67 1014.6
20180624184004 68 320 2.0 6.0 0.00 0.00 0.00 65 1014.6
20180624183503 67 336 2.0 7.0 0.00 0.00 0.00 69 1014.4
20180624183004 66 338 3.0 7.0 0.00 0.00 0.00 67 1014.5
20180624182503 66 346 2.0 6.0 0.00 0.00 0.00 69 1014.6
20180624182003 66 351 3.0 9.0 0.00 0.00 0.00 67 1014.5
20180624181503 67 350 2.0 9.0 0.00 0.00 0.00 65 1014.5
20180624181003 67 338 2.0 8.0 0.00 0.00 0.00 66 1014.2
20180624180504 67 332 3.0 9.0 0.00 0.00 0.00 66 1014.2
20180624180004 67 332 2.0 9.0 0.00 0.00 0.00 68 1014.1
20180624175503 67 338 2.0 9.0 0.00 0.00 0.00 70 1014.1
20180624175003 66 333 2.0 6.0 0.00 0.00 0.00 68 1014.1
20180624174503 66 324 2.0 8.0 0.00 0.00 0.00 69 1014.1
20180624174004 65 337 3.0 8.0 0.00 0.00 0.00 68 1014.0
20180624173503 65 351 3.0 7.0 0.00 0.00 0.00 70 1014.1
20180624173003 64 2 3.0 7.0 0.00 0.00 0.00 70 1014.0
20180624172503 64 1 3.0 6.0 0.00 0.00 0.00 69 1013.9
20180624172003 64 346 2.0 6.0 0.00 0.00 0.00 70 1013.9
20180624171504 64 332 2.0 8.0 0.00 0.00 0.00 72 1013.8
20180624171003 63 329 3.0 9.0 0.00 0.00 0.00 71 1013.7
20180624170504 63 325 2.0 9.0 0.00 0.00 0.00 71 1013.8
20180624170004 63 325 2.0 6.0 0.00 0.00 0.00 71 1013.8
20180624165504 64 325 2.0 8.0 0.00 0.00 0.00 71 1013.8
20180624165004 64 332 3.0 8.0 0.00 0.00 0.00 70 1013.7
20180624164503 64 340 2.0 9.0 0.00 0.00 0.00 71 1013.7
20180624164003 64 330 3.0 10.0 0.00 0.00 0.00 70 1013.7
20180624163503 64 332 3.0 10.0 0.00 0.00 0.00 69 1013.6
20180624163004 65 324 3.0 9.0 0.00 0.00 0.00 69 1013.6
20180624162504 65 318 3.0 9.0 0.00 0.00 0.00 69 1013.5
20180624162003 65 326 2.0 8.0 0.00 0.00 0.00 69 1013.5
20180624161503 65 342 2.0 8.0 0.00 0.00 0.00 70 1013.7
20180624161003 65 339 2.0 8.0 0.00 0.00 0.00 70 1013.5
20180624160503 65 344 2.0 8.0 0.00 0.00 0.00 71 1013.4
20180624160003 65 4 2.0 7.0 0.00 0.00 0.00 69 1013.3
20180624155503 66 346 2.0 8.0 0.00 0.00 0.00 68 1013.3
20180624155003 66 333 2.0 8.0 0.00 0.00 0.00 67 1013.1
20180624154504 66 329 2.0 8.0 0.00 0.00 0.00 69 1012.9
20180624154004 67 338 2.0 9.0 0.00 0.00 0.00 66 1012.8
20180624153503 67 346 2.0 9.0 0.00 0.00 0.00 67 1012.6
20180624153003 67 333 2.0 7.0 0.00 0.00 0.00 67 1012.6
20180624152503 66 343 3.0 8.0 0.00 0.00 0.00 69 1012.6
20180624152004 66 1 2.0 8.0 0.00 0.00 0.00 69 1012.6
20180624151504 66 346 2.0 9.0 0.00 0.00 0.00 69 1012.4
20180624151004 65 329 2.0 9.0 0.00 0.00 0.00 70 1012.4
20180624150503 65 331 1.0 9.0 0.00 0.00 0.00 72 1012.5
20180624150003 64 331 2.0 9.0 0.00 0.00 0.00 72 1012.4
20180624145503 64 325 2.0 7.0 0.00 0.00 0.00 71 1012.3
20180624145004 64 325 1.0 6.0 0.00 0.00 0.00 72 1012.2
20180624144504 63 341 1.0 6.0 0.00 0.00 0.00 74 1012.1
20180624144004 62 343 2.0 7.0 0.00 0.00 0.00 76 1011.9
20180624143503 61 326 2.0 8.0 0.00 0.00 0.00 76 1011.9
20180624143003 60 321 2.0 8.0 0.00 0.00 0.00 76 1011.9
20180624142503 60 339 2.0 7.0 0.00 0.00 0.00 76 1011.8
20180624142004 60 352 2.0 7.0 0.00 0.00 0.00 78 1011.7
20180624141504 59 343 2.0 7.0 0.00 0.00 0.00 80 1011.4
20180624141003 58 341 3.0 10.0 0.00 0.00 0.00 79 1011.4
20180624140503 58 341 2.0 10.0 0.00 0.00 0.00 79 1011.4
20180624140003 58 347 2.0 7.0 0.00 0.00 0.00 80 1011.5
20180624135504 57 331 2.0 6.0 0.00 0.00 0.00 81 1011.5
20180624135003 57 323 2.0 6.0 0.00 0.00 0.00 81 1011.5
20180624134503 56 332 2.0 6.0 0.00 0.00 0.00 81 1011.4
20180624134003 56 333 1.0 6.0 0.00 0.00 0.00 81 1011.3
20180624133504 56 325 2.0 6.0 0.00 0.00 0.00 81 1011.4
20180624133004 56 328 2.0 6.0 0.00 0.00 0.00 81 1011.4
20180624132503 56 337 2.0 7.0 0.00 0.00 0.00 82 1011.4
20180624132003 56 330 2.0 7.0 0.00 0.00 0.00 82 1011.3
20180624131503 56 319 1.0 7.0 0.00 0.00 0.00 81 1011.4
20180624131004 56 331 1.0 5.0 0.00 0.00 0.00 83 1011.4
20180624130503 56 339 1.0 4.0 0.00 0.00 0.00 82 1011.3
20180624130003 56 322 0.0 6.0 0.00 0.00 0.00 83 1011.2
20180624125503 55 316 1.0 6.0 0.00 0.00 0.00 84 1011.2
20180624125004 55 320 1.0 4.0 0.00 0.00 0.00 84 1011.1
20180624124503 54 332 1.0 6.0 0.00 0.00 0.00 85 1011.1
20180624124003 54 335 1.0 6.0 0.00 0.00 0.00 84 1011.1
20180624123504 54 344 0.0 3.0 0.00 0.00 0.00 85 1011.0
20180624123004 53 319 1.0 8.0 0.00 0.00 0.00 86 1010.9
20180624122504 53 315 1.0 8.0 0.00 0.00 0.00 85 1010.8
20180624122007 53 317 1.0 4.0 0.00 0.00 0.00 86 1010.7
20180624121503 53 323 1.0 8.0 0.00 0.00 0.00 85 1010.7
20180624121003 53 320 2.0 8.0 0.00 0.00 0.00 86 1010.5
20180624120504 53 313 1.0 5.0 0.00 0.00 0.00 87 1010.6
20180624120004 52 316 1.0 5.0 0.00 0.00 0.00 88 1010.5
20180624115504 52 318 1.0 5.0 0.00 0.00 0.00 87 1010.3
20180624115003 52 323 0.0 5.0 0.00 0.00 0.00 88 1010.3
20180624114504 52 337 0.0 2.0 0.00 0.00 0.00 88 1010.3
20180624114004 52 341 0.0 3.0 0.00 0.00 0.00 88 1010.2
20180624113504 52 341 0.0 3.0 0.00 0.00 0.00 88 1010.2
20180624113003 52 333 1.0 5.0 0.00 0.00 0.00 89 1010.1
20180624112503 52 323 2.0 7.0 0.00 0.00 0.00 89 1010.0
20180624112004 52 323 2.0 7.0 0.00 0.00 0.00 88 1009.9
20180624111504 52 326 1.0 5.0 0.00 0.00 0.00 89 1009.9
20180624111003 52 323 1.0 5.0 0.00 0.00 0.00 89 1009.8
20180624110503 52 322 1.0 6.0 0.00 0.00 0.00 89 1009.8
20180624110004 52 317 1.0 6.0 0.00 0.00 0.00 89 1009.8
20180624105504 52 319 1.0 6.0 0.00 0.00 0.00 89 1009.8
20180624105003 52 326 1.0 6.0 0.00 0.00 0.00 89 1009.8
20180624104503 52 322 1.0 7.0 0.00 0.00 0.00 89 1009.7
20180624104005 52 319 1.0 7.0 0.00 0.00 0.00 89 1009.6
20180624103504 52 319 1.0 7.0 0.00 0.00 0.00 89 1009.5
20180624103004 52 319 1.0 7.0 0.00 0.00 0.00 89 1009.4
20180624102503 52 320 1.0 6.0 0.00 0.00 0.00 89 1009.4
20180624102003 52 316 1.0 5.0 0.00 0.00 0.00 89 1009.3
20180624101504 52 316 1.0 4.0 0.00 0.00 0.00 89 1009.3
20180624101004 52 324 1.0 4.0 0.00 0.00 0.00 88 1009.2
20180624100503 53 323 1.0 6.0 0.00 0.00 0.00 88 1009.2
20180624100003 53 323 2.0 6.0 0.00 0.00 0.00 88 1009.1